Goshen, IN

6:01 AM EDT on May 27, 2017 (GMT -0400)
Goshen Municipal

Weather History for KGSH - June, 2013

Change the Weather History Date:

Saturday, June 1, 2013

  Actual Average Record
Temperature  
Mean Temperature 68 °F -  
Max Temperature 73 °F 76 °F 91 °F (1988)
Min Temperature 64 °F 54 °F 37 °F (2003)
Cooling Degree Days 4    
Growing Degree Days 18 (Base 50)    
Moisture  
Dew Point 63 °F    
Average Humidity 80    
Maximum Humidity 90    
Minimum Humidity 64    
Precipitation  
Precipitation 0.80 in - - ()
Sea Level Pressure  
Sea Level Pressure 29.80 in    
Wind  
Wind Speed 12 mph (SSW)    
Max Wind Speed 23 mph    
Max Gust Speed 29 mph    
Visibility 9 miles    
Events Rain , Thunderstorm    
Averages and records for this station are not official NWS values.
T = Trace of Precipitation, MM = Missing Value Source: NWS Daily Summary

Daily Weather History Graph

Daily Weather History Graph

Search for Another Location

Airport or City:

Trip Planner

Search our weather history database for the weather conditions in past years. The results will help you decide how hot, cold, wet, or windy it might be!

Date:

Astronomy

Jun. 01, 2013 Rise Set
Actual Time 6:11 AM EDT 9:10 PM EDT
Civil Twilight 5:38 AM EDT 9:44 PM EDT
Nautical Twilight 4:56 AM EDT 10:26 PM EDT
Astronomical Twilight 4:06 AM EDT 11:16 PM EDT
Moon 2:11 AM EDT (6/1) 2:35 PM EDT (6/1)
Length of Visible Light 16h 06m
Length of Day
14h 59m
Last Quarter, 41% of the Moon is Illuminated
Jun 1
Last Quarter
Jun 8
New
Jun 16
First Quarter
Jun 23
Full
Jun 30
Last Quarter

Hourly Weather History & Observations

Time (EDT) Temp. Dew Point Humidity Pressure Visibility Wind Dir Wind Speed Gust Speed Precip Events Conditions
12:53 AM 66.9 °F 63.0 °F 87% 29.83 in 10.0 mi SSE 8.1 mph - N/A   Mostly Cloudy
1:11 AM 66.2 °F 62.6 °F 88% 29.84 in 10.0 mi SSE 6.9 mph - N/A   Mostly Cloudy
1:51 AM 68.0 °F 64.4 °F 88% 29.83 in 10.0 mi SSE 10.4 mph - N/A   Overcast
1:53 AM 68.0 °F 64.0 °F 87% 29.81 in 10.0 mi SSE 11.5 mph - N/A   Overcast
2:01 AM 68.0 °F 64.4 °F 88% 29.83 in 10.0 mi SSE 10.4 mph - N/A Thunderstorm Overcast
2:23 AM 68.0 °F 64.4 °F 88% 29.84 in 1.5 mi SSW 16.1 mph 24.2 mph 0.25 in Rain , Thunderstorm Heavy Thunderstorms and Rain
2:26 AM 68.0 °F 64.4 °F 88% 29.84 in 0.8 mi SSW 23.0 mph 28.8 mph 0.44 in Rain , Thunderstorm Heavy Thunderstorms and Rain
2:32 AM 69.8 °F 66.2 °F 88% 29.84 in 0.8 mi SSW 11.5 mph 28.8 mph 0.54 in Rain , Thunderstorm Heavy Thunderstorms and Rain
2:39 AM 69.8 °F 64.4 °F 83% 29.84 in 2.0 mi SW 16.1 mph 21.9 mph 0.58 in Rain , Thunderstorm Heavy Thunderstorms and Rain
2:48 AM 69.8 °F 64.4 °F 83% 29.82 in 4.0 mi SW 11.5 mph 24.2 mph 0.61 in Rain , Thunderstorm Rain
2:53 AM 69.1 °F 64.9 °F 87% 29.82 in 5.0 mi SW 15.0 mph - 0.62 in Rain , Thunderstorm Light Rain
3:31 AM 66.2 °F 62.6 °F 88% 29.83 in 5.0 mi South 4.6 mph - 0.12 in Rain Light Rain
3:53 AM 66.0 °F 63.0 °F 90% 29.80 in 10.0 mi SE 5.8 mph - 0.12 in   Mostly Cloudy
4:41 AM 66.2 °F 62.6 °F 88% 29.82 in 10.0 mi South 11.5 mph - N/A   Mostly Cloudy
4:48 AM 66.2 °F 62.6 °F 88% 29.82 in 10.0 mi South 12.7 mph - N/A   Mostly Cloudy
4:53 AM 66.0 °F 63.0 °F 90% 29.82 in 10.0 mi South 11.5 mph - 0.00 in Rain Light Rain
5:53 AM 66.0 °F 62.1 °F 87% 29.81 in 10.0 mi South 3.5 mph - 0.04 in Rain Light Rain
6:53 AM 64.9 °F 62.1 °F 90% 29.75 in 10.0 mi SE 15.0 mph - 0.01 in Rain Light Rain
7:53 AM 66.0 °F 62.1 °F 87% 29.76 in 10.0 mi SSE 9.2 mph - 0.01 in   Scattered Clouds
8:38 AM 66.2 °F 62.6 °F 88% 29.82 in 10.0 mi SW 12.7 mph - N/A   Mostly Cloudy
8:53 AM 66.9 °F 62.1 °F 84% 29.81 in 10.0 mi SW 9.2 mph - N/A   Overcast
9:53 AM 69.1 °F 63.0 °F 81% 29.80 in 10.0 mi SSW 11.5 mph - N/A   Mostly Cloudy
10:18 AM 69.8 °F 62.6 °F 78% 29.81 in 10.0 mi SSW 11.5 mph - N/A   Mostly Cloudy
10:53 AM 70.0 °F 63.0 °F 78% 29.80 in - SW 13.8 mph - N/A   Unknown
11:26 AM 71.6 °F 62.6 °F 73% 29.81 in 10.0 mi SW 13.8 mph - N/A   Mostly Cloudy
11:53 AM 72.0 °F 63.0 °F 73% 29.81 in 10.0 mi SW 13.8 mph - N/A   Mostly Cloudy
12:19 PM 71.6 °F 62.6 °F 73% 29.82 in 10.0 mi SW 18.4 mph - N/A   Overcast
12:29 PM 71.6 °F 62.6 °F 73% 29.82 in 10.0 mi WSW 18.4 mph 26.5 mph N/A   Overcast
12:41 PM 71.6 °F 62.6 °F 73% 29.82 in 10.0 mi SW 19.6 mph - N/A   Overcast
12:53 PM 73.0 °F 62.1 °F 68% 29.80 in 10.0 mi SW 18.4 mph 26.5 mph N/A   Mostly Cloudy
1:34 PM 71.6 °F 62.6 °F 73% 29.81 in 10.0 mi SSW 13.8 mph 27.6 mph N/A   Overcast
1:53 PM 72.0 °F 62.1 °F 71% 29.80 in 10.0 mi SSW 18.4 mph 24.2 mph N/A   Overcast
2:53 PM 71.1 °F 62.1 °F 73% 29.80 in 10.0 mi SW 12.7 mph - N/A   Overcast
3:53 PM 72.0 °F 61.0 °F 68% 29.80 in 10.0 mi SSW 15.0 mph 20.7 mph N/A   Overcast
4:53 PM 72.0 °F 61.0 °F 68% 29.78 in 10.0 mi SSW 15.0 mph - N/A   Overcast
5:53 PM 73.9 °F 61.0 °F 64% 29.76 in 10.0 mi South 13.8 mph - N/A   Mostly Cloudy
6:53 PM 73.9 °F 61.0 °F 64% 29.74 in 10.0 mi SSW 12.7 mph - N/A   Scattered Clouds
7:53 PM 72.0 °F 62.1 °F 71% 29.74 in 10.0 mi SSW 10.4 mph - N/A   Mostly Cloudy
8:53 PM 71.1 °F 62.1 °F 73% 29.73 in 10.0 mi South 8.1 mph - N/A   Overcast
9:53 PM 70.0 °F 63.0 °F 78% 29.72 in 10.0 mi South 8.1 mph - 0.00 in   Overcast
10:53 PM 69.1 °F 63.0 °F 81% 29.71 in 10.0 mi SSW 10.4 mph - N/A   Mostly Cloudy
11:43 PM 69.8 °F 62.6 °F 78% 29.72 in 10.0 mi SW 13.8 mph 19.6 mph N/A   Overcast
11:50 PM 69.8 °F 62.6 °F 78% 29.71 in 10.0 mi SW 16.1 mph - N/A   Overcast
11:53 PM 70.0 °F 62.1 °F 76% 29.70 in 10.0 mi SW 15.0 mph - N/A   Overcast